Flag for China Weather past 2 weeks in Changsha, Hunan, China

Now
79 °F

Clear.


Feels Like: 81 °F
Forecast: 70 / 86 °F
Wind: 6 mph from Southeast

Location: Changsha

Current Time: Aug 28, 2015 at 6:11:28 PM

Latest Report: Aug 28, 2015 at 5:00 PM


Visibility: 5 mi

Pressure: 29.74 "Hg

Humidity: 70%

Dew point: 68 °F

Location of ChangshaLocation

Historic Weather in Changsha — Graph

°F

Changsha temperature yesterday

Maximum temperature yesterday: 90 °F (at 3:00 PM)
Minimum temperature yesterday: 75 °F (at 1:00 AM)
Average temperature yesterday: 81 °F

Past Weeks' High & Low Weather Summary

 TemperatureHumidityPressure
High93 °F (Aug 16, 3:00 PM)94% (Aug 15, 1:00 AM)29.89 "Hg (Aug 15, 1:00 AM)
Low72 °F (Aug 19, 8:00 PM)34% (Aug 23, 2:00 PM)29.56 "Hg (Aug 23, 6:00 PM)
Average80 °F75%29.73 "Hg
* Reported Aug 13 4:00 PM — Aug 28 4:00 PM, Changsha, Weather by CustomWeather, © 2015

Note: Actual official high and low records may vary slightly from our data, if they occured in-between our weather recording intervals... More about our weather records

Advertising

Changsha weather history for previous 24 hours

 ConditionsComfort  
Time TempWeatherWind HumidityBarometerVisibility
4:00 PM
Fri, Aug 28
79 °FScattered clouds.6 mph74%29.74 "Hg4 mi
3:00 PM79 °FDrizzle. Partly sunny.3 mph74%29.77 "Hg4 mi
2:00 PM81 °FDrizzle. Mostly cloudy.3 mph70%29.77 "Hg4 mi
1:00 PM79 °FLight rain. Fog.3 mph74%29.80 "Hg3 mi
12:00 PM79 °FLight rain. Fog.1 mph74%29.80 "Hg3 mi
11:00 AM79 °FLight rain. Fog.3 mph74%29.83 "Hg3 mi
10:00 AM77 °FFog.1 mph83%29.83 "Hg2 mi
9:00 AM75 °FFog.1 mph94%29.83 "Hg1 mi
8:00 AM73 °FFog.1 mph94%29.80 "Hg1 mi
7:00 AM73 °FLight rain. Fog.1 mph94%29.80 "Hg1 mi
6:00 AM73 °FLight rain. Fog.1 mph94%29.80 "Hg1 mi
5:00 AM73 °FLight rain. Fog.3 mph94%29.77 "Hg1 mi
4:00 AM73 °FLight rain. Fog.1 mph89%29.80 "Hg2 mi
3:00 AM73 °FFog.1 mph89%29.80 "Hg2 mi
2:00 AM73 °FLight rain. Fog.3 mph89%29.80 "Hg1 mi
1:00 AM75 °FLight rain. Fog.3 mph83%29.83 "Hg2 mi
12:00 AM77 °FLight rain. Fog.6 mph83%29.83 "Hg2 mi
11:00 PM
Thu, Aug 27
77 °FLight rain. Fog.1 mph89%29.83 "Hg2 mi
10:00 PM79 °FLight rain. Fog.1 mph79%29.83 "Hg2 mi
9:00 PM79 °FFog.1 mph79%29.83 "Hg3 mi
8:00 PM81 °FLight rain. Fog.3 mph70%29.77 "Hg3 mi
7:00 PM82 °FClear.3 mph70%29.77 "Hg4 mi
6:00 PM84 °FClear.6 mph62%29.77 "Hg4 mi
Weather by CustomWeather, © 2015

See weather overviewHow to use our weather pages